sat.trackr.live / text

‹ back to catalog

STARLINK-34163

NORAD 64008 · 2025-101Q

PAYLOAD ACTIVE UNKNOWN

§ Identity

Operator
Country
US
Launch date
2025-05-14
Launch site
AFETR
Launch vehicle
Mass (kg)
RCS (m²)

Purposes: comms

External: N2YO · Heavens-Above · Gunter

§ Orbital elements

Epoch: 2026-09-20T05:11:52.480032Z

Period
94.27 min
Inclination
43.0026°
Eccentricity
0.0001779
Mean motion
15.27586787 rev/d
Perigee alt
481.8 km
Apogee alt
484.2 km
Semi-major
6,861.2 km
B*
2.2945e-4
RAAN
339.5456°
Arg perigee
270.6276°
Mean anomaly
89.4372°
Rev number
7,680

§ Raw data

STARLINK-341631 64008U 25101Q   26263.21657963  .00006058  00000+0  22945-3 0  99982 64008  43.0026 339.5456 0001779 270.6276  89.4372 15.27586787 76804

JSON: /api/v1/satellites/64008 · /tle

For live sub-satellite position, see the globe view (requires WebGL).

§ Visibility from observer

Set your observer location to see the next 7 days of passes ≥ 10°. The values pass through the URL so the page stays shareable.

No JS? Fill the form by hand. The geolocation button needs JavaScript.